• Join FlightAware (Why Join?)
  • Login
  • US Flag 
04:33AM EDT


 

Airport Tracker/Info


-or-


 

Live Flight TrackerFlight Track Log ✈ AFL150 ✈ 03-Oct-2013 ✈ UUEE / SVO - MUHA / HAV

Flight Track Log - Related Links

Times and Time Zones

All times are in EDT time to prevent confusion due to time zone crossing. See the AFL150 flight status page for this flight to view local times or setup timezone preferences in your user account.

Time Position Orientation Groundspeed Altitude Reporting Facility
EDT Latitude Longitude Course Direction KTS MPH feet Rate Location/Type
10:21AM 55.9640 37.3660 254° West 177 204 1,200  Level FlightAware
10:21AM 55.9600 37.3370 256° West 177 204 2,000 1,680 Climbing FlightAware
10:21AM 55.9540 37.2940 256° West 191 220 2,600 960 Climbing FlightAware
10:22AM 55.9600 37.2450 282° West 216 249 3,000 960 Climbing FlightAware
10:22AM 55.9690 37.2100 295° West 242 278 3,400 1,800 Climbing FlightAware
10:23AM 55.9790 37.1730 296° West 251 289 4,200 2,040 Climbing FlightAware
10:23AM 55.9860 37.1440 293° West 265 305 4,600 1,860 Climbing FlightAware
10:23AM 55.9960 37.1030 294° West 273 314 5,300 2,520 Climbing FlightAware
10:23AM 56.0060 37.0650 295° West 270 311 6,300 2,820 Climbing FlightAware
10:24AM 56.0170 37.0220 295° West 271 312 7,200 2,400 Climbing FlightAware
10:24AM 56.0270 36.9800 293° West 278 320 7,900 2,400 Climbing FlightAware
10:24AM 56.0380 36.9380 295° West 280 322 8,800 2,460 Climbing FlightAware
10:25AM 56.0510 36.8840 293° West 286 329 9,800 2,100 Climbing FlightAware
10:25AM 56.0700 36.8080 294° West 300 345 10,900 1,620 Climbing FlightAware
10:26AM 56.0910 36.7270 295° West 321 369 11,700 1,440 Climbing FlightAware
10:27AM 56.1130 36.6370 294° West 344 396 12,600 1,500 Climbing FlightAware
10:27AM 56.1360 36.5430 294° West 364 419 13,500 1,620 Climbing FlightAware
10:28AM 56.1600 36.4440 294° West 380 437 14,500 1,800 Climbing FlightAware
10:28AM 56.1850 36.3420 294° West 386 444 15,700 2,040 Climbing FlightAware
10:29AM 56.2100 36.2390 294° West 391 450 16,900 1,860 Climbing FlightAware
10:30AM 56.2360 36.1330 294° West 401 461 17,900 1,800 Climbing FlightAware
10:30AM 56.2610 36.0290 293° West 407 468 19,000 1,620 Climbing FlightAware
10:31AM 56.2890 35.9140 294° West 419 482 19,800 1,440 Climbing FlightAware
10:31AM 56.3160 35.8010 293° West 426 490 20,700 1,560 Climbing FlightAware
10:32AM 56.3430 35.6860 293° West 432 497 21,700 1,500 Climbing FlightAware
10:32AM 56.3710 35.5690 293° West 440 506 22,500 1,500 Climbing FlightAware
10:33AM 56.3990 35.4520 293° West 443 510 23,400 1,440 Climbing FlightAware
10:33AM 56.4130 35.4040 298° West 441 507 23,700 1,200 Climbing FlightAware
10:34AM 56.4330 35.3620 311° West 438 504 24,000 1,200 Climbing FlightAware
10:34AM 56.4630 35.3220 324° Northwest 434 499 24,400 1,320 Climbing FlightAware
10:34AM 56.5020 35.2930 338° Northwest 430 495 24,900 1,200 Climbing FlightAware
10:35AM 56.5680 35.2750 351° North 434 499 25,500 960 Climbing FlightAware
10:35AM 56.6420 35.2550 352° North 439 505 26,100 1,200 Climbing FlightAware
10:36AM 56.7120 35.2290 348° North 445 512 26,900 1,320 Climbing FlightAware
10:36AM 56.7390 35.2040 333° Northwest 452 520 27,200 960 Climbing FlightAware
10:37AM 56.7970 35.1240 323° Northwest 459 528 27,700 840 Climbing FlightAware
10:37AM 56.8580 35.0420 324° Northwest 464 534 28,200 900 Climbing FlightAware
10:38AM 56.9170 34.9610 323° Northwest 467 537 28,800 1,080 Climbing FlightAware
10:39AM 56.9770 34.8780 323° Northwest 467 537 29,500 1,080 Climbing FlightAware
10:39AM 57.0390 34.7930 323° Northwest 467 537 30,100 1,020 Climbing FlightAware
10:40AM 57.0990 34.7090 323° Northwest 466 536 30,700 1,080 Climbing FlightAware
10:40AM 57.1560 34.6290 323° Northwest 464 534 31,400 1,080 Climbing FlightAware
10:41AM 57.2180 34.5430 323° Northwest 463 533 32,000 1,020 Climbing FlightAware
10:41AM 57.2780 34.4570 322° Northwest 460 529 32,600 1,020 Climbing FlightAware
10:42AM 57.3370 34.3750 323° Northwest 460 529 33,200 1,020 Climbing FlightAware
10:43AM 57.3940 34.2940 323° Northwest 456 525 33,800 660 Climbing FlightAware
10:43AM 57.4540 34.2070 322° Northwest 457 526 34,000 120 Climbing FlightAware
10:44AM 57.5120 34.1250 323° Northwest 457 526 34,000  Level FlightAware
10:44AM 57.5710 34.0400 322° Northwest 458 527 34,000  Level FlightAware
10:45AM 57.6300 33.9560 323° Northwest 458 527 34,000  Level FlightAware
10:46AM 57.6870 33.8740 322° Northwest 455 524 34,000  Level FlightAware
10:46AM 57.7450 33.7890 322° Northwest 453 521 34,000  Level FlightAware
10:47AM 57.8020 33.7070 323° Northwest 450 518 34,000  Level FlightAware
10:47AM 57.8590 33.6180 320° Northwest 450 518 34,000  Level FlightAware
10:48AM 57.9220 33.5160 319° Northwest 449 517 34,000  Level FlightAware
10:49AM 57.9720 33.4360 320° Northwest 448 516 34,000  Level FlightAware
10:49AM 58.0400 33.3270 320° Northwest 448 516 34,000  Level FlightAware
10:50AM 58.0970 33.2350 320° Northwest 448 516 34,000  Level FlightAware
10:51AM 58.1500 33.1470 319° Northwest 448 516 34,000  Level FlightAware
10:51AM 58.2450 32.9930 320° Northwest 450 518 34,000  Level FlightAware
10:52AM 58.2980 32.9070 320° Northwest 450 518 34,000  Level FlightAware
10:53AM 58.3460 32.8270 319° Northwest 450 518 34,000  Level FlightAware
10:53AM 58.3940 32.7480 319° Northwest 450 518 34,000  Level FlightAware
10:54AM 58.4400 32.6700 318° Northwest 450 518 34,000  Level FlightAware
10:55AM 58.5560 32.4790 319° Northwest 452 520 34,000  Level FlightAware
10:55AM 58.6060 32.3960 319° Northwest 452 520 34,000  Level FlightAware
10:56AM 58.6600 32.3050 319° Northwest 452 520 34,000  Level FlightAware
10:56AM 58.7220 32.2010 319° Northwest 452 520 34,000  Level FlightAware
10:57AM 58.7770 32.1060 318° Northwest 452 520 34,000  Level FlightAware
10:58AM 58.8180 32.0360 319° Northwest 452 520 34,000  Level FlightAware
10:58AM 58.8770 31.9350 319° Northwest 454 522 34,000  Level FlightAware
10:59AM 58.9310 31.8430 319° Northwest 454 522 34,000  Level FlightAware
10:59AM 58.9890 31.7430 318° Northwest 453 521 34,000  Level FlightAware
11:00AM 59.0230 31.6720 313° West 462 532 34,000  Level FlightAware
11:00AM 59.0480 31.5720 296° West 471 542 34,000  Level FlightAware
11:01AM 59.0760 31.4380 292° West 470 541 34,000  Level FlightAware
11:01AM 59.1050 31.3010 292° West 470 541 34,000  Level FlightAware
11:02AM 59.1340 31.1650 293° West 469 540 34,000  Level FlightAware
11:02AM 59.1620 31.0280 292° West 468 539 34,000  Level FlightAware
11:03AM 59.1950 30.8710 292° West 467 537 34,000  Level FlightAware
11:04AM 59.2190 30.7560 292° West 467 537 34,000  Level FlightAware
11:04AM 59.2510 30.6040 292° West 467 537 34,000  Level FlightAware
11:05AM 59.2760 30.4830 292° West 465 535 34,000  Level FlightAware
11:05AM 59.3030 30.3510 292° West 465 535 34,000  Level FlightAware
11:06AM 59.3280 30.2260 291° West 463 533 34,000  Level FlightAware
11:07AM 59.3590 30.0760 292° West 463 533 34,000  Level FlightAware
11:07AM 59.3860 29.9420 292° West 464 534 34,000  Level FlightAware
11:08AM 59.4130 29.8070 292° West 464 534 34,000  Level FlightAware
11:08AM 59.4410 29.6640 291° West 464 534 34,000  Level FlightAware
11:09AM 59.4700 29.5140 291° West 464 534 34,000  Level FlightAware
11:10AM 59.5010 29.3590 292° West 462 532 34,000  Level FlightAware
11:10AM 59.5240 29.2390 291° West 462 532 34,000  Level FlightAware
11:11AM 59.5540 29.0850 291° West 460 529 34,000  Level FlightAware
11:12AM 59.5800 28.9440 290° West 460 529 34,000  Level FlightAware
11:12AM 59.6110 28.7810 291° West 460 529 34,000  Level FlightAware
11:13AM 59.6350 28.6230 287° West 461 531 34,000  Level FlightAware
11:13AM 59.6520 28.5070 286° West 460 529 34,000  Level FlightAware
11:14AM 59.6770 28.3370 286° West 459 528 34,000  Level FlightAware
11:14AM 59.6930 28.2240 286° West 460 529 34,000  Level FlightAware
11:15AM 59.7140 28.0750 286° West 461 531 34,000  Level FlightAware
11:16AM 59.7340 27.9300 285° West 460 529 34,000  Level FlightAware
11:16AM 59.7530 27.7940 286° West 461 531 34,000  Level FlightAware
11:17AM 59.7730 27.6520 286° West 460 529 34,000  Level FlightAware
11:17AM 59.7960 27.4860 285° West 459 528 34,000  Level FlightAware
11:18AM 59.8150 27.3460 285° West 457 526 34,000  Level FlightAware
11:19AM 59.8310 27.2260 285° West 457 526 34,000  Level FlightAware
11:19AM 59.8500 27.0820 285° West 457 526 34,000  Level FlightAware
11:20AM 59.8750 26.8960 285° West 457 526 34,000  Level FlightAware
11:20AM 59.8970 26.7280 285° West 456 525 34,000  Level FlightAware
11:21AM 59.9140 26.5980 285° West 456 525 34,000  Level FlightAware
11:22AM 59.9330 26.4470 284° West 454 522 34,000  Level FlightAware
11:22AM 59.9550 26.3210 289° West 451 519 34,000  Level FlightAware
11:23AM 59.9820 26.2220 299° West 445 512 34,000  Level FlightAware
11:23AM 60.0220 26.0940 302° West 446 513 34,000  Level FlightAware
11:24AM 60.0590 25.9690 301° West 445 512 34,000  Level FlightAware
11:24AM 60.0960 25.8460 301° West 447 514 34,000  Level FlightAware
11:25AM 60.1340 25.7230 302° West 447 514 34,000  Level FlightAware
11:26AM 60.1730 25.5930 301° West 446 513 34,000  Level FlightAware
11:26AM 60.2080 25.4760 301° West 447 514 34,000  Level FlightAware
11:27AM 60.2420 25.3590 300° West 447 514 34,000  Level FlightAware
11:27AM 60.2820 25.2230 301° West 447 514 34,000  Level FlightAware
11:28AM 60.3210 25.0930 301° West 448 516 34,000  Level FlightAware
11:28AM 60.3520 24.9850 300° West 447 514 34,000  Level FlightAware
11:29AM 60.3920 24.8490 301° West 446 513 34,000  Level FlightAware
11:30AM 60.4230 24.7400 300° West 445 512 34,000  Level FlightAware
11:30AM 60.4660 24.5910 300° West 446 513 34,000  Level FlightAware
11:31AM 60.4980 24.4800 300° West 446 513 34,000  Level FlightAware
11:31AM 60.5340 24.3530 300° West 447 514 34,000  Level FlightAware
11:32AM 60.5710 24.2210 300° West 448 516 34,000  Level FlightAware
11:33AM 60.6070 24.0930 300° West 448 516 34,000  Level FlightAware
11:33AM 60.6400 23.9750 300° West 448 516 34,000  Level FlightAware
11:34AM 60.6770 23.8450 300° West 447 514 34,000  Level FlightAware
11:34AM 60.7160 23.7020 299° West 447 514 34,000  Level FlightAware
11:35AM 60.7510 23.5760 300° West 447 514 34,000  Level FlightAware
11:35AM 60.7830 23.4570 299° West 447 514 34,000  Level FlightAware
11:36AM 60.8190 23.3270 300° West 447 514 34,000  Level FlightAware
11:37AM 60.8550 23.1920 299° West 447 514 34,000  Level FlightAware
11:37AM 60.8870 23.0710 299° West 447 514 34,000  Level FlightAware
11:38AM 60.9260 22.9270 299° West 447 514 34,000  Level FlightAware
11:38AM 60.9580 22.8050 298° West 447 514 34,000  Level FlightAware
11:39AM 60.9950 22.6680 299° West 447 514 34,000  Level FlightAware
11:40AM 61.0280 22.5390 298° West 448 516 34,000  Level FlightAware
11:40AM 61.0580 22.4070 295° West 448 516 34,000  Level FlightAware
11:41AM 61.0890 22.2750 296° West 449 517 34,000  Level FlightAware
11:41AM 61.1230 22.1280 296° West 449 517 34,000  Level FlightAware
11:42AM 61.1520 21.9980 295° West 448 516 34,000  Level FlightAware
11:42AM 61.1820 21.8670 295° West 448 516 34,000  Level FlightAware
11:43AM 61.2150 21.7190 295° West 446 513 34,000  Level FlightAware
11:44AM 61.2440 21.5930 296° West 446 513 34,000  Level FlightAware
11:44AM 61.2760 21.4490 295° West 445 512 34,000  Level FlightAware
11:45AM 61.3060 21.3140 295° West 443 510 34,000  Level FlightAware
11:45AM 61.3340 21.1870 295° West 443 510 34,000  Level FlightAware
11:46AM 61.3640 21.0480 294° West 442 509 34,000  Level FlightAware
11:47AM 61.3950 20.9050 294° West 443 510 34,000  Level FlightAware
11:47AM 61.4240 20.7700 294° West 443 510 34,000  Level FlightAware
11:48AM 61.4520 20.6430 295° West 442 509 34,000  Level FlightAware
11:48AM 61.4830 20.4990 294° West 442 509 34,000  Level FlightAware
11:49AM 61.5090 20.3740 294° West 441 507 34,000  Level FlightAware
11:49AM 61.5390 20.2310 294° West 442 509 34,000 240 Level FlightAware
11:50AM 61.5640 20.1120 294° West 445 512 34,300 780 Climbing FlightAware
11:51AM 61.5980 19.9470 293° West 441 507 35,000 900 Climbing FlightAware
11:51AM 61.6240 19.8220 294° West 441 507 35,400 660 Climbing FlightAware
11:52AM 61.6520 19.6870 294° West 441 507 35,800 480 Climbing FlightAware
11:52AM 61.6790 19.5530 293° West 443 510 36,000 120 Climbing FlightAware
11:53AM 61.7100 19.4000 293° West 445 512 36,000  Level FlightAware
11:54AM 61.7370 19.2640 293° West 442 509 36,000  Level FlightAware
11:54AM 61.7680 19.1070 293° West 441 507 36,000  Level FlightAware
11:55AM 61.7930 18.9830 293° West 441 507 36,000  Level FlightAware
11:55AM 61.8210 18.8400 293° West 439 505 36,000  Level FlightAware
11:56AM 61.8500 18.6940 293° West 439 505 36,000  Level FlightAware
11:57AM 61.8780 18.5460 292° West 439 505 36,000  Level FlightAware
11:57AM 61.9050 18.4100 293° West 440 506 36,000  Level FlightAware
11:58AM 61.9300 18.2780 292° West 441 507 36,000  Level FlightAware
11:58AM 61.9560 18.1390 292° West 440 506 36,000  Level FlightAware
11:59AM 61.9850 17.9870 292° West 441 507 36,000  Level FlightAware
12:00PM 62.0110 17.8450 291° West 441 507 36,000  Level FlightAware
12:00PM 62.0360 17.7140 292° West 441 507 36,000  Level FlightAware
12:01PM 62.0640 17.5620 292° West 441 507 36,000  Level FlightAware
12:01PM 62.0880 17.4310 291° West 442 509 36,000  Level FlightAware
12:02PM 62.1170 17.2690 291° West 442 509 36,000  Level FlightAware
12:02PM 62.1440 17.1210 291° West 443 510 36,000  Level FlightAware
12:03PM 62.1670 16.9910 291° West 441 507 36,000  Level FlightAware
12:04PM 62.1920 16.8520 291° West 441 507 36,000  Level FlightAware
12:04PM 62.2190 16.6980 291° West 443 510 36,000  Level FlightAware
12:05PM 62.2410 16.5750 291° West 444 511 36,000  Level FlightAware
12:05PM 62.2680 16.4190 290° West 441 507 36,000  Level FlightAware
12:06PM 62.2930 16.2710 290° West 442 509 36,000  Level FlightAware
12:07PM 62.3190 16.1230 291° West 441 507 36,000  Level FlightAware
12:07PM 62.3440 15.9750 290° West 441 507 36,000  Level FlightAware
12:08PM 62.3660 15.8450 290° West 441 507 36,000  Level FlightAware
12:08PM 62.3890 15.7050 290° West 442 509 36,000  Level FlightAware
12:09PM 62.4150 15.5470 290° West 442 509 36,000  Level FlightAware
12:09PM 62.4400 15.3970 290° West 441 507 36,000  Level FlightAware
12:10PM 62.4630 15.2560 289° West 440 506 36,000  Level FlightAware
12:11PM 62.4840 15.1240 289° West 442 509 36,000  Level FlightAware
12:11PM 62.5080 14.9740 289° West 440 506 36,000  Level FlightAware
12:12PM 62.5290 14.8420 289° West 438 504 36,000  Level FlightAware
12:12PM 62.5520 14.7010 290° West 436 502 36,000  Level FlightAware
12:13PM 62.5790 14.5280 289° West 436 502 36,000  Level FlightAware
12:14PM 62.6000 14.3880 288° West 436 502 36,000  Level FlightAware
12:14PM 62.6220 14.2480 289° West 436 502 36,000  Level FlightAware
12:15PM 62.6440 14.1070 289° West 437 503 36,000  Level FlightAware
12:15PM 62.6650 13.9660 288° West 439 505 36,000  Level FlightAware
12:16PM 62.6890 13.8050 288° West 438 504 36,000  Level FlightAware
12:16PM 62.7100 13.6700 289° West 439 505 36,000  Level FlightAware
12:17PM 62.7320 13.5190 288° West 438 504 36,000  Level FlightAware
12:18PM 62.7550 13.3630 288° West 439 505 36,000  Level FlightAware
12:18PM 62.7740 13.2330 288° West 440 506 36,000  Level FlightAware
12:19PM 62.7960 13.0800 288° West 443 510 36,000  Level FlightAware
12:19PM 62.8190 12.9180 287° West 444 511 36,000  Level FlightAware
12:20PM 62.8380 12.7850 287° West 440 506 36,000  Level FlightAware
12:21PM 62.8610 12.6220 287° West 439 505 36,000  Level FlightAware
12:21PM 62.8800 12.4810 287° West 439 505 36,000  Level FlightAware
12:22PM 62.9000 12.3360 287° West 438 504 36,000  Level FlightAware
12:22PM 62.9210 12.1820 287° West 438 504 36,000  Level FlightAware
12:23PM 62.9390 12.0470 286° West 437 503 36,000  Level FlightAware
12:23PM 62.9620 11.8760 287° West 437 503 36,000  Level FlightAware
12:24PM 62.9800 11.7410 286° West 437 503 36,000  Level FlightAware
12:25PM 63.0010 11.5850 287° West 440 506 36,000  Level FlightAware
12:25PM 63.0200 11.4400 286° West 439 505 36,000  Level FlightAware
12:26PM 63.0400 11.2870 286° West 438 504 36,000  Level FlightAware
12:26PM 63.0570 11.1490 285° West 437 503 36,000  Level FlightAware
12:27PM 63.0770 10.9940 286° West 435 501 36,000  Level FlightAware
12:28PM 63.0960 10.8420 286° West 434 499 36,000  Level FlightAware
12:28PM 63.1160 10.6780 285° West 435 501 36,000  Level FlightAware
12:29PM 63.1330 10.5420 286° West 436 502 36,000  Level FlightAware
12:29PM 63.1510 10.3950 285° West 436 502 36,000  Level FlightAware
12:30PM 63.1690 10.2500 285° West 437 503 36,000  Level FlightAware
12:30PM 63.1870 10.0970 285° West 438 504 36,000  Level FlightAware
12:31PM 63.2070 9.9300 285° West 439 505 36,000  Level FlightAware
12:32PM 63.2230 9.7920 284° West 439 505 36,000  Level FlightAware
12:32PM 63.2410 9.6330 284° West 439 505 36,000  Level FlightAware
12:33PM 63.2590 9.4760 284° West 440 506 36,000  Level FlightAware
12:33PM 63.2750 9.3360 284° West 441 507 36,000  Level FlightAware
12:34PM 63.2940 9.1680 284° West 443 510 36,000  Level FlightAware
12:35PM 63.3110 9.0150 284° West 443 510 36,000  Level FlightAware
12:35PM 63.3280 8.8610 284° West 442 509 36,000  Level FlightAware
12:36PM 63.3450 8.7060 284° West 443 510 36,000  Level FlightAware
12:36PM 63.3610 8.5530 283° West 441 507 36,000  Level FlightAware
12:37PM 63.3770 8.4000 283° West 439 505 36,000  Level FlightAware
12:37PM 63.3940 8.2400 283° West 437 503 36,000  Level FlightAware
12:38PM 63.4090 8.0980 283° West 435 501 36,000  Level FlightAware
12:39PM 63.4250 7.9390 283° West 433 498 36,000  Level FlightAware
12:39PM 63.4410 7.7850 283° West 433 498 36,000  Level FlightAware
12:40PM 63.4550 7.6430 283° West 433 498 36,000  Level FlightAware
12:40PM 63.4710 7.4840 283° West 433 498 36,000  Level FlightAware
12:41PM 63.4840 7.3500 282° West 434 499 36,000  Level FlightAware
12:42PM 63.5000 7.1820 282° West 434 499 36,000  Level FlightAware
12:42PM 63.5150 7.0260 282° West 434 499 36,000  Level FlightAware
12:43PM 63.5290 6.8740 282° West 431 496 36,000  Level FlightAware
12:43PM 63.5430 6.7270 282° West 430 495 36,000  Level FlightAware
12:44PM 63.5580 6.5650 282° West 428 493 36,000  Level FlightAware
12:44PM 63.5700 6.4330 282° West 427 491 36,000  Level FlightAware
12:45PM 63.5850 6.2660 281° West 428 493 36,000  Level FlightAware
12:46PM 63.5980 6.1240 282° West 428 493 36,000  Level FlightAware
12:46PM 63.6120 5.9610 281° West 427 491 36,000  Level FlightAware
12:47PM 63.6260 5.8010 281° West 427 491 36,000  Level FlightAware
12:47PM 63.6370 5.6630 280° West 427 491 36,000  Level FlightAware
12:48PM 63.6500 5.5100 281° West 429 494 36,000  Level FlightAware
12:49PM 63.6650 5.3370 281° West 430 495 36,000  Level FlightAware
12:49PM 63.6760 5.1950 280° West 430 495 36,000  Level FlightAware
12:50PM 63.6880 5.0430 280° West 428 493 36,000  Level FlightAware
12:50PM 63.7000 4.9000 281° West 427 491 36,000  Level FlightAware
12:51PM 63.7120 4.7510 280° West 426 490 36,000  Level FlightAware
12:51PM 63.7250 4.5780 280° West 425 489 36,000  Level FlightAware
12:52PM 63.7360 4.4290 280° West 424 488 36,000  Level FlightAware
12:53PM 63.7480 4.2790 280° West 424 488 36,000  Level FlightAware
12:53PM 63.7590 4.1290 279° West 426 490 36,000  Level FlightAware
12:54PM 63.7700 3.9670 279° West 428 493 36,000  Level FlightAware
12:54PM 63.7800 3.8310 280° West 429 494 36,000  Level FlightAware
12:55PM 63.7910 3.6790 279° West 431 496 36,000  Level FlightAware
12:56PM 63.8030 3.5020 279° West 431 496 36,000  Level FlightAware
12:56PM 63.8130 3.3590 279° West 428 493 36,000  Level FlightAware
12:57PM 63.8240 3.2020 279° West 428 493 36,000  Level FlightAware
12:57PM 63.8330 3.0560 278° West 427 491 36,000  Level FlightAware
12:58PM 63.8430 2.9010 278° West 427 491 36,000  Level FlightAware
12:58PM 63.8520 2.7570 278° West 427 491 36,000  Level FlightAware
12:59PM 63.8630 2.5860 278° West 427 491 36,000  Level FlightAware
01:00PM 63.8740 2.4180 279° West 427 491 36,000  Level FlightAware
01:00PM 63.8830 2.2690 278° West 428 493 36,000  Level FlightAware
01:01PM 63.8910 2.1210 277° West 428 493 36,000  Level FlightAware
01:01PM 63.9000 1.9660 278° West 428 493 36,000  Level FlightAware
01:02PM 63.9090 1.8150 278° West 427 491 36,000  Level FlightAware
01:03PM 63.9180 1.6580 277° West 425 489 36,000  Level FlightAware
01:03PM 63.9270 1.4930 277° West 422 486 36,000  Level FlightAware
01:04PM 63.9350 1.3510 277° West 421 484 36,000  Level FlightAware
01:04PM 63.9440 1.1790 277° West 420 483 36,000  Level FlightAware
01:05PM 63.9510 1.0410 277° West 420 483 36,000  Level FlightAware
01:06PM 63.9600 0.8430 276° West 420 483 36,000  Level FlightAware
01:06PM 63.9670 0.7080 277° West 420 483 36,000  Level FlightAware
01:07PM 63.9710 0.6140 276° West 420 483 36,000  Level FlightAware
01:07PM 63.9770 0.4790 276° West 420 483 36,000  Level FlightAware
01:08PM 63.9830 0.3410 276° West 420 483 36,000  Level FlightAware
01:09PM 63.9900 0.2020 277° West 420 483 36,000  Level FlightAware
01:09PM 63.9960 0.0670 276° West 420 483 36,000  Level FlightAware
01:10PM 64.0020 -0.0600 276° West 420 483 36,000  Level FlightAware
01:10PM 64.0130 -0.3800 275° West 417 480 36,000  Level FlightAware
01:11PM 64.0170 -0.5200 274° West 417 480 36,000  Level FlightAware
01:11PM 64.0210 -0.6300 275° West 415 478 36,000  Level FlightAware
01:12PM 64.0270 -0.8560 274° West 416 479 36,000  Level FlightAware
01:13PM 64.0310 -0.9970 274° West 417 480 36,000  Level FlightAware
01:13PM 64.0360 -1.1950 273° West 417 480 36,000  Level FlightAware
01:14PM 64.0390 -1.3340 273° West 417 480 36,000  Level FlightAware
01:15PM 64.0420 -1.4760 273° West 417 480 36,000  Level FlightAware
01:15PM 64.0460 -1.6140 274° West 417 480 36,000  Level FlightAware
01:16PM 64.0520 -1.8470 273° West 422 486 36,000  Level FlightAware
01:16PM 64.0550 -1.9990 273° West 423 487 36,000  Level FlightAware
01:17PM 64.0580 -2.1470 273° West 423 487 36,000  Level FlightAware
01:18PM 64.0630 -2.3770 273° West 425 489 36,000  Level FlightAware
01:18PM 64.0650 -2.5220 272° West 425 489 36,000  Level FlightAware
01:19PM 64.0690 -2.7610 272° West 430 495 36,000  Level FlightAware
01:20PM 64.0710 -2.9000 272° West 430 495 36,000  Level FlightAware
01:21PM 64.0730 -3.0430 272° West 430 495 36,000  Level FlightAware
01:21PM 64.0760 -3.2710 272° West 438 504 36,000  Level FlightAware
01:22PM 64.0780 -3.4260 272° West 439 505 36,000  Level FlightAware
01:22PM 64.0790 -3.5900 271° West 440 506 36,000  Level FlightAware
01:23PM 64.0810 -3.7560 272° West 441 507 36,000  Level FlightAware
01:23PM 64.0820 -3.9260 271° West 443 510 36,000  Level FlightAware
01:24PM 64.0830 -4.0750 271° West 445 512 36,000  Level FlightAware
01:25PM 64.0840 -4.2410 271° West 446 513 36,000  Level FlightAware
01:25PM 64.0850 -4.4030 271° West 448 516 36,000  Level FlightAware
01:26PM 64.0860 -4.5820 271° West 449 517 36,000  Level FlightAware
01:26PM 64.0860 -4.7560 270° West 449 517 36,000  Level FlightAware
01:27PM 64.0860 -4.9050 270° West 449 517 36,000  Level FlightAware
01:28PM 64.0860 -5.1680 270° West 446 513 36,000  Level FlightAware
01:28PM 64.0860 -5.3450 270° West 446 513 36,000  Level FlightAware
01:29PM 64.0850 -5.5160 269° West 446 513 36,000  Level FlightAware
01:30PM 64.0850 -5.6680 270° West 447 514 36,000  Level FlightAware
01:30PM 64.0840 -5.8360 269° West 448 516 36,000  Level FlightAware
01:31PM 64.0830 -5.9850 269° West 449 517 36,000  Level FlightAware
01:31PM 64.0820 -6.1670 269° West 450 518 36,000  Level FlightAware
01:32PM 64.0800 -6.3530 269° West 452 520 36,000  Level FlightAware
01:33PM 64.0780 -6.5280 269° West 454 522 36,000  Level FlightAware
01:33PM 64.0770 -6.6830 269° West 456 525 36,000  Level FlightAware
01:34PM 64.0750 -6.8570 269° West 456 525 36,000  Level FlightAware
01:34PM 64.0720 -7.0350 268° West 456 525 36,000  Level FlightAware
01:35PM 64.0700 -7.2060 269° West 457 526 36,000  Level FlightAware
01:36PM 64.0670 -7.3690 268° West 459 528 36,000  Level FlightAware
01:36PM 64.0640 -7.5280 268° West 460 529 36,000  Level FlightAware
01:37PM 64.0600 -7.7150 267° West 460 529 36,000  Level FlightAware
01:37PM 64.0570 -7.8630 267° West 460 529 36,000  Level FlightAware
01:38PM 64.0530 -8.0120 267° West 460 529 36,000  Level FlightAware
01:39PM 64.0500 -8.1610 267° West 460 529 36,000  Level FlightAware
01:39PM 64.0460 -8.3130 267° West 460 529 36,000  Level FlightAware
01:40PM 64.0430 -8.4540 267° West 460 529 36,000  Level FlightAware
01:40PM 64.0400 -8.6020 267° West 460 529 36,000  Level FlightAware
01:41PM 64.0360 -8.7550 267° West 460 529 36,000  Level FlightAware
01:42PM 64.0320 -8.9160 267° West 460 529 36,000  Level FlightAware
01:42PM 64.0290 -9.0680 267° West 460 529 36,000  Level FlightAware
01:43PM 64.0250 -9.2170 267° West 460 529 36,000  Level FlightAware
01:44PM 64.0220 -9.3650 267° West 460 529 36,000  Level FlightAware
01:44PM 64.0180 -9.5180 267° West 460 529 36,000  Level FlightAware
01:45PM 64.0150 -9.6660 267° West 460 529 36,000  Level FlightAware
01:45PM 63.9880 -10.1980 264° West 455 524 36,000  Level FlightAware
01:46PM 63.9770 -10.3680 262° West 455 524 36,000  Level FlightAware
01:47PM 63.9670 -10.5210 262° West 455 524 36,000  Level FlightAware
01:47PM 63.9550 -10.6890 261° West 456 525 36,000  Level FlightAware
01:48PM 63.9450 -10.8480 262° West 457 526 36,000  Level FlightAware
01:48PM 63.9330 -11.0110 261° West 458 527 36,000  Level FlightAware
01:49PM 63.9230 -11.1570 261° West 458 527 36,000  Level FlightAware
01:49PM 63.9110 -11.3250 261° West 458 527 36,000  Level FlightAware
01:50PM 63.9000 -11.4840 261° West 457 526 36,000  Level FlightAware
01:51PM 63.8870 -11.6560 260° West 456 525 36,000  Level FlightAware
01:51PM 63.8740 -11.8250 260° West 455 524 36,000  Level FlightAware
01:52PM 63.8610 -11.9930 260° West 455 524 36,000  Level FlightAware
01:52PM 63.8500 -12.1440 261° West 456 525 36,000  Level FlightAware
01:53PM 63.8360 -12.3110 259° West 456 525 36,000  Level FlightAware
01:53PM 63.8230 -12.4790 260° West 455 524 36,000  Level FlightAware
01:54PM 63.8100 -12.6330 259° West 454 522 36,000  Level FlightAware
01:55PM 63.7970 -12.7980 260° West 453 521 36,000  Level FlightAware
01:55PM 63.7830 -12.9630 259° West 454 522 36,000  Level FlightAware
01:56PM 63.7710 -13.1120 260° West 453 521 36,000  Level FlightAware
01:56PM 63.7550 -13.2890 259° West 452 520 36,000  Level FlightAware
01:57PM 63.7410 -13.4550 259° West 451 519 36,000  Level FlightAware
01:58PM 63.7270 -13.6100 259° West 451 519 36,000  Level FlightAware
01:58PM 63.7130 -13.7700 259° West 452 520 36,000  Level FlightAware
01:59PM 63.6970 -13.9440 258° West 452 520 36,000  Level FlightAware
01:59PM 63.6840 -14.0820 258° West 451 519 36,000  Level FlightAware
02:00PM 63.6670 -14.2630 258° West 450 518 36,000  Level FlightAware
02:00PM 63.6540 -14.4100 259° West 450 518 36,000  Level FlightAware
02:01PM 63.6370 -14.5830 258° West 451 519 36,000  Level FlightAware
02:02PM 63.6230 -14.7280 258° West 451 519 36,000  Level FlightAware
02:02PM 63.6070 -14.8960 258° West 452 520 36,000  Level FlightAware
02:03PM 63.5900 -15.0580 257° West 452 520 36,000  Level FlightAware
02:03PM 63.5740 -15.2230 258° West 453 521 36,000  Level FlightAware
02:04PM 63.5570 -15.3880 257° West 452 520 36,000  Level FlightAware
02:05PM 63.5420 -15.5360 257° West 452 520 36,000  Level FlightAware
02:05PM 63.5260 -15.6910 257° West 453 521 36,000  Level FlightAware
02:06PM 63.5080 -15.8610 257° West 454 522 36,000  Level FlightAware
02:06PM 63.4920 -16.0050 256° West 455 524 36,000  Level FlightAware
02:07PM 63.4730 -16.1810 256° West 456 525 36,000  Level FlightAware
02:07PM 63.4560 -16.3380 256° West 457 526 36,000  Level FlightAware
02:08PM 63.4390 -16.4950 256° West 457 526 36,000  Level FlightAware
02:09PM 63.4210 -16.6560 256° West 455 524 36,000  Level FlightAware
02:09PM 63.4020 -16.8200 256° West 455 524 36,000  Level FlightAware
02:10PM 63.3860 -16.9660 256° West 456 525 36,000  Level FlightAware
02:10PM 63.3690 -17.1110 255° West 456 525 36,000  Level FlightAware
02:11PM 63.3610 -17.1830 256° West 456 525 36,000  Level FlightAware
02:11PM 63.3310 -17.4370 255° West 456 525 36,000  Level FlightAware
02:12PM 63.3100 -17.6080 255° West 454 522 36,000  Level FlightAware
02:13PM 63.2920 -17.7620 255° West 453 521 36,000  Level FlightAware
02:15PM 63.2578 -18.1159 258° West  Level Estimated
02:16PM 63.2385 -18.3104 258° West  Level Estimated
02:17PM 63.2191 -18.5046 258° West  Level Estimated
02:18PM 63.1993 -18.6985 257° West  Level Estimated
02:19PM 63.1793 -18.8921 257° West  Level Estimated
02:20PM 63.1590 -19.0855 257° West  Level Estimated
02:21PM 63.1385 -19.2787 257° West  Level Estimated
02:22PM 63.1176 -19.4715 257° West  Level Estimated
02:22PM 62.9780 -20.3460 256° West 450 518 36,000  Level FlightAware
02:23PM 63.0966 -19.6641 256° West  Level Estimated
02:23PM 62.9670 -20.5180 262° West 449 517 36,000  Level FlightAware
02:24PM 62.9580 -20.6630 262° West 449 517 36,000  Level FlightAware
02:24PM 62.9470 -20.8240 262° West 449 517 36,000  Level FlightAware
02:25PM 62.9360 -20.9870 262° West 449 517 36,000  Level FlightAware
02:25PM 62.9250 -21.1420 261° West 448 516 36,000  Level FlightAware
02:26PM 62.9130 -21.3070 261° West 448 516 36,000  Level FlightAware
02:27PM 62.9020 -21.4570 261° West 449 517 36,000  Level FlightAware
02:27PM 62.8920 -21.6040 262° West 450 518 36,000  Level FlightAware
02:28PM 62.8810 -21.7480 261° West 450 518 36,000  Level FlightAware
02:28PM 62.8670 -21.9290 260° West 452 520 36,000  Level FlightAware
02:29PM 62.8550 -22.0920 261° West 450 518 36,000  Level FlightAware
02:29PM 62.8440 -22.2340 260° West 448 516 36,000  Level FlightAware
02:30PM 62.8310 -22.3900 260° West 447 514 36,000  Level FlightAware
02:31PM 62.8180 -22.5550 260° West 446 513 36,000  Level FlightAware
02:31PM 62.8050 -22.7130 260° West 446 513 36,000  Level FlightAware
02:32PM 62.7930 -22.8650 260° West 447 514 36,000  Level FlightAware
02:32PM 62.7800 -23.0250 260° West 447 514 36,000  Level FlightAware
02:33PM 62.7670 -23.1730 259° West 448 516 36,000  Level FlightAware
02:34PM 62.7530 -23.3310 259° West 448 516 36,000  Level FlightAware
02:34PM 62.7400 -23.4840 260° West 447 514 36,000  Level FlightAware
02:35PM 62.7280 -23.6150 259° West 446 513 36,000  Level FlightAware
02:35PM 62.7130 -23.7880 259° West 445 512 36,000  Level FlightAware
02:36PM 62.6990 -23.9410 259° West 445 512 36,000  Level FlightAware
02:36PM 62.6850 -24.0970 259° West 446 513 36,000  Level FlightAware
02:37PM 62.6710 -24.2460 258° West 446 513 36,000  Level FlightAware
02:38PM 62.6560 -24.4020 258° West 446 513 36,000  Level FlightAware
02:38PM 62.6410 -24.5620 259° West 446 513 36,000  Level FlightAware
02:39PM 62.6260 -24.7160 258° West 445 512 36,000  Level FlightAware
02:39PM 62.6120 -24.8570 258° West 446 513 36,000  Level FlightAware
02:40PM 62.5970 -25.0130 258° West 446 513 36,000  Level FlightAware
02:41PM 62.5810 -25.1730 258° West 447 514 36,000  Level FlightAware
02:41PM 62.5660 -25.3230 258° West 447 514 36,000  Level FlightAware
02:42PM 62.5490 -25.4820 257° West 447 514 36,000  Level FlightAware
02:42PM 62.5310 -25.6590 258° West 448 516 36,000  Level FlightAware
02:43PM 62.5140 -25.8160 257° West 448 516 36,000  Level FlightAware
02:44PM 62.4970 -25.9760 257° West 448 516 36,000  Level FlightAware
02:44PM 62.4820 -26.1140 257° West 448 516 36,000  Level FlightAware
02:45PM 62.4650 -26.2690 257° West 450 518 36,000  Level FlightAware
02:45PM 62.4480 -26.4280 257° West 450 518 36,000  Level FlightAware
02:46PM 62.4320 -26.5680 256° West 451 519 36,000  Level FlightAware
02:47PM 62.4140 -26.7270 256° West 449 517 36,000  Level FlightAware
02:47PM 62.3970 -26.8820 257° West 449 517 36,000  Level FlightAware
02:48PM 62.3810 -27.0220 256° West 448 516 36,000  Level FlightAware
02:48PM 62.3640 -27.1690 256° West 447 514 36,000  Level FlightAware
02:49PM 62.3440 -27.3340 255° West 446 513 36,000  Level FlightAware
02:49PM 62.3260 -27.4910 256° West 446 513 36,000  Level FlightAware
02:50PM 62.3090 -27.6270 255° West 446 513 36,000  Level FlightAware
02:51PM 62.2950 -27.7440 256° West 445 512 36,000  Level FlightAware
02:51PM 62.2730 -27.9220 255° West 445 512 36,000  Level FlightAware
02:52PM 62.2550 -28.0680 255° West 446 513 36,000  Level FlightAware
02:52PM 62.2350 -28.2320 255° West 448 516 36,000  Level FlightAware
02:53PM 62.2170 -28.3760 255° West 449 517 36,000  Level FlightAware
02:54PM 62.1970 -28.5280 254° West 450 518 36,000  Level FlightAware
02:54PM 62.1710 -28.7290 255° West 450 518 36,000  Level FlightAware
02:55PM 62.1500 -28.8950 255° West 447 514 36,000  Level FlightAware
02:56PM 62.1310 -29.0410 255° West 446 513 36,000  Level FlightAware
02:56PM 62.1120 -29.1850 254° West 446 513 36,000  Level FlightAware
02:57PM 62.0920 -29.3350 254° West 447 514 36,000  Level FlightAware
02:58PM 62.0660 -29.5210 253° West 447 514 36,000  Level FlightAware
02:58PM 62.0430 -29.6930 254° West 448 516 36,000  Level FlightAware
02:59PM 62.0240 -29.8310 254° West 447 514 36,000  Level FlightAware
02:59PM 62.0010 -29.9910 253° West 447 514 36,000  Level FlightAware
03:00PM 61.9820 -30.1240 253° West 447 514 36,000  Level FlightAware
03:01PM 61.9630 -30.2520 253° West 447 514 36,000  Level FlightAware
03:01PM 61.9460 -30.3740 254° West 447 514 36,000  Level FlightAware
03:02PM 61.9270 -30.5060 253° West 447 514 36,000  Level FlightAware
03:02PM 61.9080 -30.6350 253° West 447 514 36,000  Level FlightAware
03:03PM 61.8900 -30.7630 253° West 447 514 36,000  Level FlightAware
03:04PM 61.8710 -30.8950 253° West 447 514 36,000  Level FlightAware
03:04PM 61.8520 -31.0270 253° West 447 514 36,000  Level FlightAware
03:05PM 61.8330 -31.1550 253° West 447 514 36,000  Level FlightAware
03:05PM 61.8140 -31.2900 253° West 447 514 36,000  Level FlightAware
03:06PM 61.7950 -31.4180 253° West 447 514 36,000  Level FlightAware
03:07PM 61.7780 -31.5390 254° West 447 514 36,000  Level FlightAware
03:07PM 61.7590 -31.6710 253° West 447 514 36,000  Level FlightAware
03:08PM 61.7400 -31.7990 253° West 447 514 36,000  Level FlightAware
03:08PM 61.7210 -31.9300 253° West 447 514 36,000  Level FlightAware
03:11PM 61.6430 -32.2806 245° Southwest  Level Estimated
03:12PM 61.6046 -32.4510 245° Southwest  Level Estimated
03:13PM 61.5660 -32.6209 245° Southwest  Level Estimated
03:14PM 61.5272 -32.7905 244° Southwest  Level Estimated
03:15PM 61.4881 -32.9596 244° Southwest  Level Estimated
03:16PM 61.4489 -33.1283 244° Southwest  Level Estimated
03:17PM 61.4095 -33.2965 244° Southwest  Level Estimated
03:18PM 61.3698 -33.4644 244° Southwest  Level Estimated
03:19PM 61.3300 -33.6318 244° Southwest  Level Estimated
03:20PM 61.2899 -33.7987 244° Southwest  Level Estimated
03:21PM 61.2496 -33.9653 243° Southwest  Level Estimated
03:22PM 61.2092 -34.1314 243° Southwest  Level Estimated
03:23PM 61.1685 -34.2971 243° Southwest  Level Estimated
03:24PM 61.1276 -34.4624 243° Southwest  Level Estimated
03:25PM 61.0866 -34.6272 243° Southwest  Level Estimated
03:26PM 61.0453 -34.7916 243° Southwest  Level Estimated
03:27PM 61.0038 -34.9556 243° Southwest  Level Estimated
03:28PM 60.9622 -35.1192 242° Southwest  Level Estimated
03:29PM 60.9203 -35.2823 242° Southwest  Level Estimated
03:30PM 60.8782 -35.4450 242° Southwest  Level Estimated
03:31PM 60.8360 -35.6073 242° Southwest  Level Estimated
03:32PM 60.7935 -35.7691 242° Southwest  Level Estimated
03:33PM 60.7509 -35.9305 242° Southwest  Level Estimated
03:34PM 60.7080 -36.0915 242° Southwest  Level Estimated
03:35PM 60.6650 -36.2521 241° Southwest  Level Estimated
03:36PM 60.6218 -36.4122 241° Southwest  Level Estimated
03:37PM 60.5784 -36.5719 241° Southwest  Level Estimated
03:38PM 60.5347 -36.7312 241° Southwest  Level Estimated
03:39PM 60.4909 -36.8900 241° Southwest  Level Estimated
03:40PM 60.4470 -37.0484 241° Southwest  Level Estimated
03:41PM 60.4028 -37.2064 241° Southwest  Level Estimated
03:42PM 60.3584 -37.3639 240° Southwest  Level Estimated
03:43PM 60.3139 -37.5210 240° Southwest  Level Estimated
03:44PM 60.2692 -37.6777 240° Southwest  Level Estimated
03:45PM 60.2243 -37.8340 240° Southwest  Level Estimated
03:46PM 60.1791 -37.9898 240° Southwest  Level Estimated
03:47PM 60.1339 -38.1452 240° Southwest  Level Estimated
03:48PM 60.0884 -38.3002 240° Southwest  Level Estimated
03:49PM 60.0428 -38.4548 239° Southwest  Level Estimated
03:50PM 59.9969 -38.6089 239° Southwest  Level Estimated
03:51PM 59.9510 -38.7626 239° Southwest  Level Estimated
03:52PM 59.9048 -38.9158 239° Southwest  Level Estimated
03:53PM 59.8584 -39.0687 239° Southwest  Level Estimated
03:54PM 59.8119 -39.2211 239° Southwest  Level Estimated
03:55PM 59.7652 -39.3731 239° Southwest  Level Estimated
03:56PM 59.7183 -39.5246 239° Southwest  Level Estimated
03:57PM 59.6712 -39.6758 238° Southwest  Level Estimated
03:58PM 59.6240 -39.8265 238° Southwest  Level Estimated
03:59PM 59.5766 -39.9768 238° Southwest  Level Estimated
04:00PM 59.5290 -40.1266 238° Southwest  Level Estimated
04:01PM 59.4813 -40.2761 238° Southwest  Level Estimated
04:02PM 59.4334 -40.4251 238° Southwest  Level Estimated
04:03PM 59.3853 -40.5737 238° Southwest  Level Estimated
04:04PM 59.3371 -40.7219 237° Southwest  Level Estimated
04:05PM 59.2886 -40.8696 237° Southwest  Level Estimated
04:06PM 59.2400 -41.0170 237° Southwest  Level Estimated
04:07PM 59.1913 -41.1639 237° Southwest  Level Estimated
04:08PM 59.1424 -41.3104 237° Southwest  Level Estimated
04:09PM 59.0933 -41.4564 237° Southwest  Level Estimated
04:10PM 59.0440 -41.6021 237° Southwest  Level Estimated
04:11PM 58.9946 -41.7473 237° Southwest  Level Estimated
04:12PM 58.9451 -41.8922 236° Southwest  Level Estimated
04:13PM 58.8953 -42.0366 236° Southwest  Level Estimated
04:14PM 58.8454 -42.1806 236° Southwest  Level Estimated
04:15PM 58.7954 -42.3241 236° Southwest  Level Estimated
04:16PM 58.7452 -42.4673 236° Southwest  Level Estimated
04:17PM 58.6948 -42.6101 236° Southwest  Level Estimated
04:18PM 58.6443 -42.7524 236° Southwest  Level Estimated
04:19PM 58.5936 -42.8943 236° Southwest  Level Estimated
04:20PM 58.5428 -43.0358 235° Southwest  Level Estimated
04:21PM 58.4918 -43.1769 235° Southwest  Level Estimated
04:22PM 58.4406 -43.3176 235° Southwest  Level Estimated
04:23PM 58.3893 -43.4579 235° Southwest  Level Estimated
04:24PM 58.3378 -43.5978 235° Southwest  Level Estimated
04:25PM 58.2862 -43.7372 235° Southwest  Level Estimated
04:26PM 58.2345 -43.8763 235° Southwest  Level Estimated
04:27PM 58.1826 -44.0150 235° Southwest  Level Estimated
04:28PM 58.1305 -44.1532 235° Southwest  Level Estimated
04:29PM 58.0783 -44.2911 234° Southwest  Level Estimated
04:30PM 58.0259 -44.4285 234° Southwest  Level Estimated
04:31PM 57.9734 -44.5655 234° Southwest  Level Estimated
04:32PM 57.9208 -44.7022 234° Southwest  Level Estimated
04:33PM 57.8680 -44.8384 234° Southwest  Level Estimated
04:34PM 57.8150 -44.9743 234° Southwest  Level Estimated
04:35PM 57.7620 -45.1097 234° Southwest  Level Estimated
04:36PM 57.7087 -45.2447 234° Southwest  Level Estimated
04:37PM 57.6553 -45.3794 233° Southwest  Level Estimated
04:38PM 57.6018 -45.5136 233° Southwest  Level Estimated
04:39PM 57.5482 -45.6475 233° Southwest  Level Estimated
04:40PM 57.4944 -45.7809 233° Southwest  Level Estimated
04:41PM 57.4404 -45.9140 233° Southwest  Level Estimated
04:42PM 57.3863 -46.0467 233° Southwest  Level Estimated
04:43PM 57.3321 -46.1790 233° Southwest  Level Estimated
04:44PM 57.2778 -46.3109 233° Southwest  Level Estimated
04:45PM 57.2233 -46.4424 233° Southwest  Level Estimated
04:46PM 57.1686 -46.5735 232° Southwest  Level Estimated
04:47PM 57.1139 -46.7042 232° Southwest  Level Estimated
04:48PM 57.0589 -46.8345 232° Southwest  Level Estimated
04:49PM 57.0039 -46.9645 232° Southwest  Level Estimated
04:50PM 56.9487 -47.0941 232° Southwest  Level Estimated
04:51PM 56.8934 -47.2233 232° Southwest  Level Estimated
04:52PM 56.8380 -47.3521 232° Southwest  Level Estimated
04:53PM 56.7824 -47.4805 232° Southwest  Level Estimated
04:54PM 56.7267 -47.6085 232° Southwest  Level Estimated
04:55PM 56.6709 -47.7362 232° Southwest  Level Estimated
04:56PM 56.6149 -47.8635 231° Southwest  Level Estimated
04:57PM 56.5588 -47.9904 231° Southwest  Level Estimated
04:58PM 56.5026 -48.1169 231° Southwest  Level Estimated
04:59PM 56.4462 -48.2431 231° Southwest  Level Estimated
05:00PM 56.3897 -48.3689 231° Southwest  Level Estimated
05:01PM 56.3331 -48.4943 231° Southwest  Level Estimated
05:02PM 56.2764 -48.6193 231° Southwest  Level Estimated
05:02PM 54.2167 -54.1500 230° Southwest 460 529 36,000  Level Gander Center
05:03PM 56.2195 -48.7440 231° Southwest  Level Estimated
05:03PM 54.1333 -54.3500 235° Southwest 450 518 36,000  Level Gander Center
05:04PM 56.1626 -48.8683 231° Southwest  Level Estimated
05:04PM 54.0667 -54.5000 233° Southwest 460 529 36,000  Level Gander Center
05:05PM 56.1054 -48.9922 230° Southwest  Level Estimated
05:05PM 53.9667 -54.6833 227° Southwest 460 529 36,000  Level Gander Center
05:06PM 56.0482 -49.1158 230° Southwest  Level Estimated
05:06PM 53.9000 -54.8333 233° Southwest 460 529 36,000  Level Gander Center
05:07PM 55.9909 -49.2390 230° Southwest  Level Estimated
05:07PM 53.7833 -55.0000 220° Southwest 460 529 36,000  Level Gander Center
05:08PM 53.7000 -55.1167 220° Southwest 460 529 36,000  Level Gander Center
05:09PM 53.6167 -55.2667 227° Southwest 460 529 36,000  Level Gander Center
05:10PM 53.5167 -55.4333 225° Southwest 450 518 36,000  Level Gander Center
05:11PM 53.4333 -55.5833 227° Southwest 460 529 36,000  Level Gander Center
05:13PM 53.3210 -55.7712 225° Southwest  Level FlightAware Approximate
05:15PM 53.0667 -56.1667 223° Southwest 460 529 36,000  Level Gander Center
05:16PM 52.9833 -56.3167 227° Southwest 460 529 36,000  Level Gander Center
05:17PM 52.8833 -56.4667 222° Southwest 450 518 36,000  Level Gander Center
05:18PM 52.7833 -56.6000 219° Southwest 460 529 36,000  Level Gander Center
05:19PM 52.7000 -56.7500 228° Southwest 460 529 36,000  Level Gander Center
05:20PM 52.7170 -56.7499 223° Southwest  Level FlightAware Approximate
05:20PM 52.6000 -56.9000 222° Southwest 460 529 36,000  Level Gander Center
05:21PM 52.5000 -57.0500 222° Southwest 460 529 36,000  Level Gander Center
05:22PM 52.4000 -57.2000 222° Southwest 460 529 36,000  Level Gander Center
05:23PM 52.3333 -57.3333 231° Southwest 460 529 36,000  Level Gander Center
05:24PM 52.2167 -57.4833 218° Southwest 470 541 36,000  Level Gander Center
05:25PM 52.1333 -57.6000 221° Southwest 470 541 36,000  Level Gander Center
05:26PM 52.0167 -57.7833 224° Southwest 470 541 36,000  Level Gander Center
05:27PM 51.9333 -57.9167 225° Southwest 470 541 36,000  Level Gander Center
05:28PM 51.8333 -58.0667 223° Southwest 470 541 36,000  Level Gander Center
05:29PM 51.7333 -58.2000 220° Southwest 470 541 36,000  Level Gander Center
05:30PM 51.6333 -58.3500 223° Southwest 470 541 36,000  Level Gander Center
05:31PM 51.5333 -58.4833 220° Southwest 470 541 36,000  Level Gander Center
05:32PM 51.4500 -58.6000 221° Southwest 470 541 36,000  Level Gander Center
05:33PM 51.3000 -58.8167 222° Southwest 470 541 36,000  Level Gander Center
05:34PM 51.2167 -58.9167 217° Southwest 460 529 36,000  Level Moncton Center
05:35PM 51.1500 -59.0500 231° Southwest 470 541 36,000  Level Gander Center
05:36PM 51.0500 -59.1500 212° Southwest 460 529 36,000  Level Gander Center
05:37PM 50.9667 -59.2833 225° Southwest 460 529 36,000  Level Gander Center
05:38PM 50.8667 -59.4333 223° Southwest 460 529 36,000  Level Gander Center
05:39PM 50.7833 -59.5667 225° Southwest 460 529 36,000  Level Gander Center
05:40PM 50.6833 -59.7000 220° Southwest 460 529 36,000  Level Gander Center
05:41PM 50.5833 -59.8333 220° Southwest 460 529 36,000  Level Gander Center
05:42PM 50.4833 -59.9667 220° Southwest 460 529 36,000  Level Gander Center
05:43PM 50.3833 -60.1000 220° Southwest 460 529 36,000  Level Gander Center
05:44PM 50.2833 -60.2167 217° Southwest 460 529 36,000  Level Gander Center
05:45PM 50.2000 -60.3500 226° Southwest 450 518 36,000  Level Gander Center
05:46PM 50.1000 -60.4667 217° Southwest 450 518 36,000  Level Gander Center
05:47PM 50.0000 -60.6000 221° Southwest 440 506 36,000  Level Gander Center
05:48PM 49.9000 -60.7333 221° Southwest 450 518 36,000  Level Gander Center
05:49PM 49.8167 -60.8333 218° Southwest 450 518 36,000  Level Gander Center
05:50PM 49.7167 -60.9667 221° Southwest 440 506 36,000  Level Gander Center
05:51PM 49.6167 -61.0833 217° Southwest 440 506 36,000  Level Gander Center
05:52PM 49.5167 -61.2167 221° Southwest 430 495 36,000  Level Moncton Center
05:53PM 49.4333 -61.3333 222° Southwest 420 483 36,000  Level Gander Center
05:54PM 49.3500 -61.4333 218° Southwest 410 472 36,000  Level Gander Center
05:55PM 49.2667 -61.5333 218° Southwest 400 460 36,000  Level Gander Center
05:56PM 49.1833 -61.6333 218° Southwest 400 460 36,000  Level Gander Center
05:57PM 49.1000 -61.7667 226° Southwest 400 460 36,000  Level Gander Center
05:58PM 49.0167 -61.8667 218° Southwest 400 460 36,000  Level Gander Center
05:59PM 48.9333 -61.9667 218° Southwest 390 449 36,000  Level Gander Center
06:00PM 48.8500 -62.0667 218° Southwest 390 449 36,000  Level Gander Center
06:01PM 48.7667 -62.1667 218° Southwest 410 472 36,000  Level Gander Center
06:02PM 48.6667 -62.3000 221° Southwest 400 460 36,000  Level Gander Center
06:03PM 48.6000 -62.4000 225° Southwest 390 449 36,000  Level Gander Center
06:04PM 48.5000 -62.5000 214° Southwest 400 460 36,000  Level Gander Center
06:05PM 48.4000 -62.5833 209° Southwest 400 460 36,000  Level Gander Center
06:06PM 48.3167 -62.7167 227° Southwest 400 460 36,000  Level Gander Center
06:07PM 48.2333 -62.8167 219° Southwest 400 460 36,000  Level Gander Center
06:08PM 48.1500 -62.9167 219° Southwest 400 460 36,000  Level Gander Center
06:09PM 48.0667 -63.0333 223° Southwest 400 460 36,000  Level Gander Center
06:10PM 47.9667 -63.1500 218° Southwest 400 460 36,000  Level Moncton Center
06:11PM 47.8667 -63.2500 214° Southwest 400 460 36,000  Level Moncton Center
06:12PM 47.7833 -63.3500 219° Southwest 400 460 36,000  Level Moncton Center
06:14PM 47.6000 -63.5500 216° Southwest 400 460 36,000  Level Moncton Center
06:15PM 47.5167 -63.6500 219° Southwest 410 472 36,000  Level Moncton Center
06:16PM 47.4167 -63.7833 222° Southwest 410 472 36,000  Level Moncton Center
06:17PM 47.3333 -63.8833 219° Southwest 410 472 36,000  Level Moncton Center
06:18PM 47.2500 -63.9833 219° Southwest 410 472 36,000  Level Moncton Center
06:19PM 47.1667 -64.1000 224° Southwest 400 460 36,000  Level Moncton Center
06:20PM 47.1000 -64.2167 230° Southwest 400 460 36,000  Level Moncton Center
06:21PM 47.0167 -64.3500 228° Southwest 400 460 36,000  Level Moncton Center
06:22PM 46.9500 -64.4500 226° Southwest 400 460 36,000  Level Moncton Center
06:23PM 46.8667 -64.5667 224° Southwest 400 460 36,000  Level Moncton Center
06:24PM 46.7833 -64.6833 224° Southwest 400 460 36,000  Level Moncton Center
06:26PM 46.6823 -64.8389 227° Southwest  Level FlightAware Approximate
06:31PM 46.2333 -65.5000 226° Southwest 420 483 36,000  Level Gander Center
06:33PM 46.2515 -65.4922 226° Southwest  Level FlightAware Approximate
06:34PM 46.1897 -65.5847 226° Southwest  Level FlightAware Approximate
06:35PM 46.1278 -65.6770 226° Southwest  Level FlightAware Approximate
06:36PM 46.0658 -65.7691 226° Southwest  Level FlightAware Approximate
06:36PM 45.7950 -66.1690 226° Southwest 428 493 36,000  Level FlightAware
06:36PM 45.7858 -66.1817 224° Southwest 429 494 36,000  Level FlightAware ADS-B (CYQI)
06:37PM 45.7388 -66.2484 225° Southwest 429 494 36,000  Level FlightAware ADS-B (CYQI)
06:37PM 45.6963 -66.3089 225° Southwest 429 494 36,000  Level FlightAware ADS-B (CYQI)
06:38PM 45.6378 -66.3916 225° Southwest 429 494 36,000  Level FlightAware ADS-B (CYQI)
06:39PM 45.5809 -66.4719 225° Southwest 431 496 36,000  Level FlightAware ADS-B (CYQI)
06:39PM 45.5420 -66.5270 225° Southwest 429 494 36,000  Level FlightAware
06:39PM 45.5239 -66.5520 224° Southwest 431 496 36,000  Level FlightAware ADS-B (CYQI)
06:40PM 45.4648 -66.6351 225° Southwest 431 496 36,000  Level FlightAware ADS-B (CYQI)
06:40PM 45.4202 -66.6973 224° Southwest 431 496 36,000  Level FlightAware ADS-B (CYQI)
06:41PM 45.3511 -66.7936 224° Southwest 431 496 36,000  Level FlightAware ADS-B (CYQI)
06:42PM 45.2930 -66.8740 224° Southwest 429 494 36,000  Level FlightAware
06:43PM 45.2450 -66.9410 225° Southwest 429 494 36,000  Level FlightAware
06:43PM 45.1940 -67.0120 224° Southwest 427 491 36,000  Level FlightAware
06:44PM 45.1450 -67.0790 224° Southwest 427 491 36,000  Level FlightAware
06:44PM 45.0950 -67.1470 224° Southwest 427 491 36,000  Level FlightAware
06:45PM 45.1709 -67.0432 44° Northeast 426 490 36,000  Level FlightAware ADS-B (CYSG)
06:45PM 45.0306 -67.2358 224° Southwest 426 490 36,000  Level FlightAware ADS-B (CYQI)
06:46PM 44.9963 -67.2827 224° Southwest 426 490 36,000  Level FlightAware ADS-B (CYSG)
06:46PM 44.9470 -67.3490 224° Southwest 423 487 36,000  Level FlightAware
06:47PM 44.9167 -67.3911 224° Southwest 421 484 36,000  Level FlightAware ADS-B (CYSG)
06:47PM 44.8596 -67.4688 224° Southwest 419 482 36,000  Level FlightAware ADS-B (CYSG)
06:48PM 44.8160 -67.5277 224° Southwest 415 478 36,000  Level FlightAware ADS-B (CYSG)
06:48PM 44.7755 -67.5824 224° Southwest 412 474 36,000  Level FlightAware ADS-B (CYSG)
06:49PM 44.7245 -67.6511 224° Southwest 412 474 36,000  Level FlightAware ADS-B (KBGR)
06:49PM 44.6774 -67.7146 224° Southwest 412 474 36,000  Level FlightAware ADS-B (CYSG)
06:50PM 44.6263 -67.7832 224° Southwest 413 475 36,000  Level FlightAware ADS-B (CYQI)
06:51PM 44.5847 -67.8389 224° Southwest 415 478 36,000  Level FlightAware ADS-B (CYSG)
06:51PM 44.5366 -67.9031 224° Southwest 417 480 36,000  Level FlightAware ADS-B (CYSG)
06:51PM 44.5467 -67.8953 223° Southwest 427 491 36,000  Level Boston Center
06:54PM 44.3811 -68.1092 223° Southwest  Level FlightAware Approximate
06:55PM 44.3162 -68.1947 223° Southwest  Level FlightAware Approximate
06:56PM 44.2512 -68.2801 223° Southwest  Level FlightAware Approximate
06:57PM 44.0640 -68.5270 223° Southwest 425 489 36,000  Level FlightAware
06:57PM 44.0431 -68.5538 223° Southwest 425 489 36,000  Level FlightAware ADS-B (CYQI)
06:57PM 44.0094 -68.5977 223° Southwest 427 491 36,000  Level FlightAware ADS-B (KBOS)
06:58PM 43.9653 -68.6549 223° Southwest 426 490 36,000  Level FlightAware ADS-B (KBOS)
06:58PM 43.9083 -68.7287 223° Southwest 426 490 36,000  Level FlightAware ADS-B (KBOS)
06:59PM 43.8646 -68.7853 223° Southwest 427 491 36,000  Level FlightAware ADS-B (KBOS)
07:00PM 43.8064 -68.8602 223° Southwest 428 493 36,000  Level FlightAware ADS-B (KBOS)
07:00PM 43.7583 -68.9221 223° Southwest 427 491 36,000  Level FlightAware ADS-B (KBOS)
07:01PM 43.7085 -68.9858 223° Southwest 427 491 36,000  Level FlightAware ADS-B (KBOS)
07:01PM 43.6600 -69.0480 223° Southwest 428 493 36,000  Level FlightAware ADS-B (KBOS)
07:04PM 43.5188 -69.2267 223° Southwest  Level FlightAware Approximate
07:05PM 43.4531 -69.3095 222° Southwest  Level FlightAware Approximate
07:06PM 43.3873 -69.3922 222° Southwest  Level FlightAware Approximate
07:07PM 43.3214 -69.4746 222° Southwest  Level FlightAware Approximate
07:07PM 43.1833 -69.6500 222° Southwest 430 495 36,000  Level Moncton Center
07:08PM 43.2554 -69.5570 222° Southwest  Level FlightAware Approximate
07:09PM 43.1894 -69.6391 222° Southwest  Level FlightAware Approximate
07:10PM 43.1234 -69.7210 222° Southwest  Level FlightAware Approximate
07:11PM 43.0573 -69.8028 222° Southwest  Level FlightAware Approximate
07:12PM 42.9911 -69.8844 222° Southwest  Level FlightAware Approximate
07:13PM 42.9248 -69.9658 222° Southwest  Level FlightAware Approximate
07:13PM 42.6850 -70.2670 222° Southwest 421 484 36,000  Level FlightAware
07:13PM 42.6712 -70.2835 221° Southwest 428 493 36,000  Level FlightAware ADS-B (KBOS)
07:13PM 42.6228 -70.3423 222° Southwest 428 493 36,000  Level FlightAware ADS-B (KBOS)
07:14PM 42.5768 -70.3984 222° Southwest 427 491 36,000  Level FlightAware ADS-B (KBOS)
07:14PM 42.5191 -70.4684 222° Southwest 427 491 36,000  Level FlightAware ADS-B (KBOS)
07:15PM 42.4746 -70.5222 222° Southwest 426 490 36,000  Level FlightAware ADS-B (KBOS)
07:15PM 42.4280 -70.5780 221° Southwest 421 484 36,000  Level FlightAware
07:16PM 42.3948 -70.6188 222° Southwest 427 491 36,000  Level FlightAware ADS-B (KBOS)
07:16PM 42.3372 -70.6882 222° Southwest 427 491 36,000  Level FlightAware ADS-B (KBOS)
07:17PM 42.2904 -70.7444 222° Southwest 427 491 36,000  Level FlightAware ADS-B (KBOS)
07:18PM 42.2200 -70.8288 222° Southwest 427 491 36,000  Level FlightAware ADS-B (KBOS)
07:18PM 42.1724 -70.8857 222° Southwest 428 493 36,000  Level FlightAware ADS-B (KBOS)
07:19PM 42.1213 -70.9466 221° Southwest 428 493 36,000  Level FlightAware ADS-B (KBOS)
07:20PM 42.0616 -71.0177 221° Southwest 429 494 36,000  Level FlightAware ADS-B (KBOS)
07:20PM 42.0150 -71.0730 221° Southwest 429 494 36,000  Level FlightAware ADS-B (KBOS)
07:21PM 41.9640 -71.1340 222° Southwest 428 493 36,000  Level FlightAware
07:21PM 41.9536 -71.1458 220° Southwest 428 493 36,000  Level FlightAware ADS-B (KBOS)
07:22PM 41.8878 -71.2235 221° Southwest 427 491 36,000  Level FlightAware ADS-B (KBOS)
07:22PM 41.8414 -71.2781 221° Southwest 427 491 36,000  Level FlightAware ADS-B (KBOS)
07:23PM 41.7959 -71.3316 221° Southwest 427 491 36,000  Level FlightAware ADS-B (KBOS)
07:23PM 41.7497 -71.3858 221° Southwest 428 493 36,000  Level FlightAware ADS-B (KBOS)
07:24PM 41.7074 -71.4354 221° Southwest 428 493 36,000  Level FlightAware ADS-B (KBOS)
07:24PM 41.6502 -71.5022 221° Southwest 429 494 36,000  Level FlightAware ADS-B (KBOS)
07:25PM 41.5640 -71.6030 221° Southwest 428 493 36,000  Level FlightAware
07:26PM 41.5090 -71.6670 221° Southwest 428 493 36,000  Level FlightAware
07:26PM 41.4600 -71.7230 221° Southwest 428 493 36,000  Level FlightAware
07:27PM 41.4170 -71.7730 221° Southwest 429 494 36,000  Level FlightAware
07:27PM 41.3560 -71.8440 221° Southwest 428 493 36,000  Level FlightAware
07:28PM 41.3040 -71.9040 221° Southwest 428 493 36,000  Level FlightAware
07:29PM 41.2530 -71.9620 221° Southwest 427 491 36,000  Level FlightAware
07:29PM 41.1970 -72.0260 221° Southwest 427 491 36,000  Level FlightAware
07:30PM 41.1480 -72.0830 221° Southwest 428 493 36,000  Level FlightAware
07:30PM 41.0960 -72.1440 221° Southwest 429 494 36,000  Level FlightAware
07:31PM 41.0440 -72.2040 221° Southwest 430 495 36,000  Level FlightAware
07:32PM 40.9870 -72.2710 222° Southwest 431 496 36,000  Level FlightAware
07:32PM 40.9390 -72.3250 220° Southwest 431 496 36,000  Level FlightAware
07:33PM 40.8860 -72.3870 221° Southwest 430 495 36,000  Level FlightAware
07:33PM 40.8360 -72.4450 221° Southwest 429 494 36,000  Level FlightAware
07:34PM 40.7790 -72.5100 221° Southwest 428 493 36,000  Level FlightAware
07:34PM 40.7280 -72.5680 221° Southwest 428 493 36,000  Level FlightAware
07:35PM 40.6740 -72.6290 221° Southwest 428 493 36,000  Level FlightAware
07:36PM 40.6200 -72.6900 221° Southwest 427 491 36,000  Level FlightAware
07:36PM 40.5730 -72.7440 221° Southwest 425 489 36,000  Level FlightAware
07:37PM 40.5180 -72.8070 221° Southwest 424 488 36,000  Level FlightAware
07:37PM 40.4650 -72.8670 221° Southwest 427 491 36,000  Level FlightAware
07:38PM 40.4160 -72.9220 221° Southwest 430 495 36,000  Level FlightAware
07:39PM 40.3620 -72.9820 220° Southwest 433 498 36,000  Level FlightAware
07:39PM 40.3130 -73.0370 221° Southwest 434 499 36,000  Level FlightAware
07:40PM 40.2560 -73.1020 221° Southwest 436 502 36,000  Level FlightAware
07:40PM 40.2080 -73.1550 220° Southwest 436 502 36,000  Level FlightAware
07:41PM 40.1490 -73.2220 221° Southwest 435 501 36,000  Level FlightAware
07:41PM 40.0910 -73.2860 220° Southwest 435 501 36,000  Level FlightAware
07:42PM 40.0380 -73.3450 220° Southwest 436 502 36,000  Level FlightAware
07:43PM 39.9870 -73.4020 221° Southwest 437 503 36,000  Level FlightAware
07:43PM 39.9330 -73.4610 220° Southwest 437 503 36,000  Level FlightAware
07:44PM 39.8750 -73.5260 221° Southwest 437 503 36,000  Level FlightAware
07:44PM 39.8210 -73.5860 220° Southwest 437 503 36,000  Level FlightAware
07:45PM 39.7710 -73.6400 220° Southwest 434 499 36,000  Level FlightAware
07:46PM 39.7170 -73.7000 221° Southwest 434 499 36,000  Level FlightAware
07:46PM 39.6600 -73.7620 220° Southwest 433 498 36,000  Level FlightAware
07:47PM 39.6110 -73.8160 220° Southwest 432 497 36,000  Level FlightAware
07:47PM 39.5510 -73.8810 220° Southwest 432 497 36,000  Level FlightAware
07:48PM 39.5040 -73.9320 220° Southwest 432 497 36,000  Level FlightAware
07:48PM 39.4470 -73.9940 220° Southwest 432 497 36,000  Level FlightAware
07:49PM 39.3980 -74.0470 220° Southwest 433 498 36,000  Level FlightAware
07:50PM 39.3390 -74.1110 220° Southwest 433 498 36,000  Level FlightAware
07:50PM 39.2880 -74.1660 220° Southwest 434 499 36,000  Level FlightAware
07:51PM 39.2350 -74.2240 220° Southwest 435 501 36,000  Level FlightAware
07:51PM 39.1800 -74.2830 220° Southwest 438 504 36,000  Level FlightAware
07:52PM 39.1220 -74.3450 220° Southwest 438 504 36,000  Level FlightAware
07:53PM 39.0680 -74.4020 219° Southwest 438 504 36,000  Level FlightAware
07:53PM 39.0130 -74.4620 220° Southwest 438 504 36,000  Level FlightAware
07:54PM 38.9600 -74.5180 219° Southwest 438 504 36,000  Level FlightAware
07:54PM 38.9190 -74.5610 219° Southwest 438 504 36,000  Level FlightAware
07:55PM 38.8510 -74.6330 220° Southwest 437 503 36,000  Level FlightAware
07:55PM 38.8030 -74.6850 220° Southwest 436 502 36,000  Level FlightAware
07:56PM 38.7360 -74.7560 220° Southwest 436 502 36,000  Level FlightAware
07:56PM 38.7030 -74.7850 214° Southwest 439 505 36,000  Level FlightAware
07:57PM 38.6420 -74.8310 211° Southwest 440 506 36,000  Level FlightAware
07:58PM 38.5770 -74.8800 211° Southwest 440 506 36,000  Level FlightAware
07:58PM 38.5150 -74.9260 210° Southwest 440 506 36,000  Level FlightAware
07:59PM 38.4570 -74.9700 211° Southwest 439 505 36,000  Level FlightAware
08:00PM 38.3860 -75.0230 210° Southwest 440 506 36,000  Level FlightAware
08:00PM 38.3325 -75.0622 210° Southwest 441 507 36,000  Level Washington Center
08:01PM 38.2203 -75.1583 214° Southwest 446 513 36,000  Level Washington Center
08:02PM 38.1119 -75.2303 208° Southwest 446 513 36,000  Level Washington Center
08:03PM 38.0081 -75.3125 212° Southwest 446 513 36,000  Level Washington Center
08:04PM 37.9019 -75.3892 210° Southwest 446 513 36,000  Level Washington Center
08:05PM 37.7936 -75.4708 211° Southwest 446 513 36,000  Level Washington Center
08:06PM 37.6872 -75.5472 210° Southwest 451 519 36,000  Level Washington Center
08:07PM 37.5828 -75.6258 211° Southwest 451 519 36,000  Level Washington Center
08:08PM 37.4744 -75.7017 209° Southwest 451 519 36,000  Level Washington Center
08:09PM 37.3700 -75.7800 211° Southwest 451 519 36,000  Level Washington Center
08:10PM 37.2656 -75.8556 210° Southwest 446 513 36,000  Level Washington Center
08:11PM 37.1589 -75.9333 210° Southwest 446 513 36,000  Level Washington Center
08:12PM 37.0525 -76.0083 209° Southwest 446 513 36,000  Level Washington Center
08:13PM 36.9417 -76.0831 208° Southwest 451 519 36,000  Level Washington Center
08:14PM 36.8347 -76.1603 210° Southwest 456 525 36,000  Level Washington Center
08:15PM 36.7281 -76.2347 209° Southwest 456 525 36,000  Level Washington Center
08:16PM 36.6108 -76.3217 211° Southwest 456 525 36,000  Level Washington Center
08:17PM 36.4978 -76.3825 203° Southwest 442 509 36,000  Level Washington Center
08:18PM 36.3806 -76.4356 200° South 442 509 36,000  Level Washington Center
08:19PM 36.2633 -76.4911 201° Southwest 447 514 36,000  Level Washington Center
08:20PM 36.1461 -76.5436 200° South 447 514 36,000  Level Washington Center
08:26PM 35.4430 -76.8630 200° South 452 520 36,000  Level FlightAware
08:27PM 35.3820 -76.8910 201° Southwest 452 520 36,000  Level FlightAware
08:28PM 35.3340 -76.9120 200° South 450 518 36,000  Level FlightAware
08:28PM 35.1750 -76.9840 200° South 444 511 36,000  Level FlightAware
08:29PM 35.1010 -77.0170 200° South 441 507 36,000  Level FlightAware
08:30PM 35.0390 -77.0450 200° South 439 505 36,000  Level FlightAware
08:30PM 34.9720 -77.0750 200° South 438 504 36,000  Level FlightAware
08:31PM 34.9080 -77.1030 200° South 438 504 36,000  Level FlightAware
08:32PM 34.8640 -77.1230 200° South 438 504 36,000  Level FlightAware
08:32PM 34.7420 -77.1770 200° South 437 503 36,000  Level FlightAware
08:33PM 34.7340 -77.1810 202° Southwest 437 503 36,000  Level FlightAware
08:34PM 34.6610 -77.2130 200° South 437 503 36,000  Level FlightAware
08:34PM 34.5900 -77.2440 200° South 437 503 36,000  Level FlightAware
08:35PM 34.5250 -77.2730 200° South 438 504 36,000  Level FlightAware
08:35PM 34.4640 -77.3000 200° South 438 504 36,000  Level FlightAware
08:36PM 34.4040 -77.3260 200° South 438 504 36,000  Level FlightAware
08:36PM 34.3430 -77.3530 200° South 439 505 36,000  Level FlightAware
08:37PM 34.2520 -77.3930 200° South 438 504 36,000  Level FlightAware
08:38PM 34.1840 -77.4230 200° South 438 504 36,000  Level FlightAware
08:38PM 34.1190 -77.4510 200° South 437 503 36,000  Level FlightAware
08:39PM 34.0550 -77.4790 200° South 437 503 36,000  Level FlightAware
08:39PM 33.9930 -77.5060 200° South 438 504 36,000  Level FlightAware
08:40PM 33.9170 -77.5390 200° South 439 505 36,000  Level FlightAware
08:41PM 33.8490 -77.5690 200° South 439 505 36,000  Level FlightAware
08:41PM 33.7790 -77.5990 200° South 440 506 36,000  Level FlightAware
08:42PM 33.7040 -77.6320 200° South 441 507 36,000  Level FlightAware
08:42PM 33.6560 -77.6520 199° South 442 509 36,000  Level FlightAware
08:43PM 33.5700 -77.6890 200° South 443 510 36,000  Level FlightAware
08:44PM 33.5120 -77.7150 200° South 444 511 36,000  Level FlightAware
08:44PM 33.4450 -77.7430 199° South 446 513 36,000  Level FlightAware
08:45PM 33.3940 -77.7650 200° South 446 513 36,000  Level FlightAware
08:45PM 33.6380 -77.6600 20° North 36,000  Level FlightAware
08:46PM 33.2520 -77.8260 200° South 447 514 36,000  Level FlightAware
08:46PM 33.1970 -77.8490 199° South 446 513 36,000  Level FlightAware
08:47PM 33.0310 -77.9190 199° South 447 514 36,000  Level FlightAware
08:48PM 32.9690 -77.9440 199° South 447 514 36,000  Level FlightAware
08:48PM 32.9090 -77.9690 199° South 447 514 36,000  Level FlightAware
08:49PM 33.0740 -77.9010 19° North 36,000  Level FlightAware
08:49PM 32.7650 -78.0320 200° South 453 521 36,000  Level FlightAware
08:50PM 32.6980 -78.0600 199° South 453 521 36,000  Level FlightAware
08:51PM 32.6220 -78.0930 200° South 453 521 36,000  Level FlightAware
08:51PM 32.5270 -78.1330 200° South 455 524 36,000  Level FlightAware
08:52PM 32.4540 -78.1630 199° South 456 525 36,000  Level FlightAware
08:53PM 32.3840 -78.1920 199° South 458 527 36,000  Level FlightAware
08:53PM 32.3240 -78.2180 200° South 459 528 36,000  Level FlightAware
08:54PM 32.2560 -78.2450 199° South 459 528 36,000  Level FlightAware
08:54PM 32.1770 -78.2790 200° South 459 528 36,000  Level FlightAware
08:55PM 32.0980 -78.3110 199° South 459 528 36,000  Level FlightAware
08:56PM 32.0360 -78.3360 199° South 459 528 36,000  Level FlightAware
08:56PM 31.9750 -78.3610 199° South 459 528 36,000  Level FlightAware
08:57PM 32.1410 -78.2940 19° North 36,000  Level FlightAware
08:59PM 31.6350 -78.5030 199° South 467 537 36,000  Level FlightAware
08:59PM 31.5480 -78.5390 199° South 467 537 36,000  Level FlightAware
09:00PM 31.4850 -78.5640 199° South 467 537 36,000  Level FlightAware
09:01PM 31.4230 -78.5890 199° South 467 537 36,000  Level FlightAware
09:01PM 31.3580 -78.6150 199° South 467 537 36,000  Level FlightAware
09:02PM 31.2960 -78.6400 199° South 467 537 36,000  Level FlightAware
09:03PM 31.2330 -78.6650 199° South 467 537 36,000  Level FlightAware
09:03PM 31.1710 -78.6910 200° South 467 537 36,000  Level FlightAware
09:04PM 31.1080 -78.7160 199° South 467 537 36,000  Level FlightAware
09:04PM 31.0460 -78.7410 199° South 467 537 36,000  Level FlightAware
09:05PM 30.9830 -78.7660 199° South 467 537 36,000  Level FlightAware
09:06PM 30.7720 -78.8550 200° South 468 539 36,000  Level FlightAware
09:06PM 30.7090 -78.8800 199° South 468 539 36,000  Level FlightAware
09:07PM 30.6450 -78.9050 199° South 468 539 36,000  Level FlightAware
09:08PM 30.5820 -78.9310 200° South 468 539 36,000  Level FlightAware
09:08PM 30.5190 -78.9560 199° South 468 539 36,000  Level FlightAware
09:09PM 30.4550 -78.9810 199° South 468 539 36,000  Level FlightAware
09:09PM 30.3920 -79.0060 199° South 468 539 36,000  Level FlightAware
09:10PM 30.3300 -79.0310 199° South 468 539 36,000  Level FlightAware
09:11PM 30.2480 -79.0640 199° South 468 539 36,000  Level FlightAware
09:11PM 30.1830 -79.0900 199° South 468 539 36,000  Level FlightAware
09:12PM 30.1230 -79.1140 199° South 468 539 36,000  Level FlightAware
09:13PM 30.0600 -79.1390 199° South 468 539 36,000  Level FlightAware
09:13PM 29.9970 -79.1640 199° South 468 539 36,000  Level FlightAware
09:14PM 29.9350 -79.1890 199° South 468 539 36,000  Level FlightAware
09:14PM 29.8680 -79.2150 199° South 468 539 36,000  Level FlightAware
09:15PM 29.8060 -79.2400 199° South 468 539 36,000  Level FlightAware
09:21PM 28.8890 -79.5960 199° South 470 541 36,000  Level FlightAware
09:22PM 28.8030 -79.6280 198° South 470 541 36,000  Level FlightAware
09:22PM 28.7675 -79.6411 198° South 473 544 36,000  Level FlightAware ADS-B (KMCO)
09:23PM 28.6540 -79.6830 198° South 473 544 36,000  Level FlightAware
09:23PM 28.6173 -79.6970 199° South 473 544 36,000  Level FlightAware ADS-B (KMCO)
09:24PM 28.5580 -79.7190 198° South 471 542 36,000  Level FlightAware
09:24PM 28.5340 -79.7279 198° South 472 543 36,000  Level FlightAware ADS-B (KMCO)
09:25PM 28.4367 -79.7640 198° South 471 542 36,000  Level FlightAware ADS-B (KMCO)
09:25PM 28.3726 -79.7877 198° South 471 542 36,000  Level FlightAware ADS-B (KMCO)
09:26PM 28.3103 -79.8108 198° South 472 543 36,000  Level FlightAware ADS-B (KMCO)
09:26PM 28.2459 -79.8345 198° South 473 544 36,000  Level FlightAware ADS-B (KMCO)
09:27PM 28.1971 -79.8525 198° South 473 544 36,000  Level FlightAware ADS-B (KMCO)
09:27PM 28.1196 -79.8810 198° South 474 545 36,000  Level FlightAware ADS-B (KMCO)
09:28PM 28.0560 -79.9044 198° South 474 545 36,000  Level FlightAware ADS-B (KMCO)
09:28PM 27.9773 -79.9333 198° South 473 544 36,000  Level FlightAware ADS-B (KMCO)
09:29PM 27.9125 -79.9571 198° South 472 543 36,000  Level FlightAware ADS-B (KMCO)
09:30PM 27.8266 -79.9884 198° South 470 541 36,000  Level FlightAware ADS-B (KMCO)
09:30PM 27.7650 -80.0110 198° South 469 540 36,000  Level FlightAware ADS-B (KMCO)
09:31PM 27.6842 -80.0405 198° South 470 541 36,000  Level FlightAware ADS-B (KMCO)
09:31PM 27.5963 -80.0726 198° South 470 541 36,000  Level FlightAware ADS-B (KMCO)
09:32PM 27.5204 -80.1002 198° South 470 541 36,000  Level FlightAware ADS-B (KMCO)
09:32PM 27.5125 -80.1044 197° South 477 549 36,000  Level Miami Center
09:33PM 27.4509 -80.1255 198° South 472 543 36,000  Level FlightAware ADS-B (KMCO)
09:33PM 27.3760 -80.1520 197° South 472 543 36,000  Level FlightAware
09:33PM 27.3471 -80.1630 199° South 474 545 36,000  Level FlightAware ADS-B (KMCO)
09:34PM 27.2832 -80.1861 198° South 477 549 36,000  Level FlightAware ADS-B (KMCO)
09:34PM 27.2189 -80.2095 198° South 474 545 36,000  Level FlightAware ADS-B (KMCO)
09:37PM 27.0462 -80.2715 198° South  Level FlightAware Approximate
09:38PM 26.9612 -80.3018 197° South  Level FlightAware Approximate
09:38PM 26.7830 -80.3660 197° South 474 545 36,000  Level FlightAware
09:38PM 26.7150 -80.3910 198° South 475 547 36,000  Level FlightAware
09:39PM 26.6310 -80.4210 198° South 475 547 36,000  Level FlightAware
09:40PM 26.5620 -80.4450 197° South 476 548 36,000  Level FlightAware
09:40PM 26.4820 -80.4740 198° South 476 548 36,000  Level FlightAware
09:41PM 26.4080 -80.5000 197° South 475 547 36,000  Level FlightAware
09:41PM 26.3813 -80.5099 198° South 475 547 36,000  Level FlightAware ADS-B (KMCO)
09:42PM 26.2560 -80.5540 198° South 472 543 36,000  Level FlightAware
09:43PM 26.1820 -80.5810 198° South 472 543 36,000  Level FlightAware
09:43PM 26.1000 -80.6100 198° South 474 545 36,000  Level FlightAware
09:44PM 26.0260 -80.6360 198° South 475 547 36,000  Level FlightAware
09:44PM 25.9570 -80.6700 204° Southwest 471 542 36,000  Level FlightAware
09:45PM 25.9020 -80.7100 213° Southwest 464 534 36,000  Level FlightAware
09:46PM 25.8320 -80.7600 213° Southwest 465 535 36,000  Level FlightAware
09:46PM 25.7670 -80.8060 213° Southwest 464 534 36,000  Level FlightAware
09:47PM 25.6940 -80.8580 213° Southwest 465 535 36,000  Level FlightAware
09:47PM 25.6290 -80.9050 213° Southwest 465 535 36,000  Level FlightAware
09:48PM 25.5750 -80.9430 212° Southwest 465 535 36,000  Level FlightAware
09:49PM 25.5090 -80.9890 212° Southwest 466 536 36,000  Level FlightAware
09:49PM 25.4370 -81.0410 213° Southwest 466 536 36,000  Level FlightAware
09:50PM 25.3800 -81.0810 212° Southwest 466 536 36,000  Level FlightAware
09:50PM 25.3180 -81.1250 213° Southwest 466 536 36,000  Level FlightAware
09:51PM 25.2510 -81.1720 212° Southwest 465 535 36,000  Level FlightAware
09:52PM 25.1790 -81.2230 213° Southwest 463 533 36,000  Level FlightAware
09:52PM 25.1230 -81.2620 212° Southwest 463 533 36,000  Level FlightAware
09:53PM 25.0590 -81.3070 212° Southwest 465 535 36,000 -300 Level FlightAware
09:53PM 24.9950 -81.3520 213° Southwest 461 531 35,700 -720 Descending FlightAware
09:54PM 24.9230 -81.4020 212° Southwest 455 524 35,100 -1,080 Descending FlightAware
09:54PM 24.8700 -81.4400 213° Southwest 456 525 34,500 -1,140 Descending FlightAware
09:55PM 24.7990 -81.4900 213° Southwest 460 529 33,800 -1,200 Descending FlightAware
09:56PM 24.7440 -81.5280 212° Southwest 446 513 33,100 -1,560 Descending FlightAware
09:56PM 24.6830 -81.5710 213° Southwest 439 505 32,100 -1,800 Descending FlightAware
09:57PM 24.6220 -81.6130 212° Southwest 440 506 31,000 -1,920 Descending FlightAware
09:57PM 24.5620 -81.6550 212° Southwest 436 502 29,900 -1,800 Descending FlightAware
09:58PM 24.5040 -81.6950 212° Southwest 424 488 28,900 -1,680 Descending FlightAware
10:01PM 24.2908 -81.7966 206° Southwest  Level Estimated
10:02PM 24.2025 -81.8078 187° South  Level FlightAware Approximate
10:03PM 24.1143 -81.8189 187° South  Level FlightAware Approximate
10:04PM 24.0260 -81.8301 187° South  Level FlightAware Approximate
10:04PM 23.9290 -82.0920 187° South 378 435 19,000  Level FlightAware
10:05PM 23.8840 -82.1230 212° Southwest 378 435 19,000  Level FlightAware
10:05PM 23.8390 -82.1540 212° Southwest 378 435 19,000 -3,060 Level FlightAware
10:06PM 23.7630 -82.2060 212° Southwest 894 1029 15,200 -5,880 Descending FlightAware
10:10PM 23.4492 -82.2886 194° South  Level Estimated
10:11PM 23.3629 -82.3113 194° South  Level Estimated
10:12PM 23.2765 -82.3340 194° South  Level Estimated
10:13PM 23.1901 -82.3566 194° South  Level Estimated
10:14PM 23.1038 -82.3792 194° South  Level Estimated
10:15PM 23.0174 -82.4017 194° South  Level Estimated
10:16PM 22.9891 -82.4091 194° South  Level Estimated
10:17PM 22.9891 -82.4091 51° Northeast  Level Estimated
10:18PM 22.9891 -82.4091 51° Northeast  Level Estimated
10:19PM 22.9891 -82.4091 51° Northeast  Level Estimated
10:20PM 22.9891 -82.4091 51° Northeast  Level Estimated
10:21PM 22.9891 -82.4091 51° Northeast  Level Estimated
10:22PM 22.9891 -82.4091 51° Northeast  Level Estimated
10:23PM 22.9891 -82.4091 51° Northeast  Level Estimated
10:24PM 22.9891 -82.4091 51° Northeast  Level Estimated
10:25PM 22.9891 -82.4091 51° Northeast  Level Estimated
10:26PM 22.9891 -82.4091 51° Northeast  Level Estimated
10:27PM 22.9891 -82.4091 51° Northeast  Level Estimated
10:28PM 22.9891 -82.4091 51° Northeast  Level Estimated
10:29PM 22.9891 -82.4091 51° Northeast  Level Estimated
10:30PM 22.9891 -82.4091 51° Northeast  Level Estimated
10:31PM 22.9891 -82.4091 51° Northeast  Level Estimated
10:32PM 22.9891 -82.4091 51° Northeast  Level Estimated
10:33PM 22.9891 -82.4091 51° Northeast  Level Estimated
10:34PM 22.9891 -82.4091 51° Northeast  Level Estimated
10:35PM 22.9891 -82.4091 51° Northeast  Level Estimated
10:36PM 22.9891 -82.4091 51° Northeast  Level Estimated
10:37PM 22.9891 -82.4091 51° Northeast  Level Estimated